Temperature
11 11 11 12 11 11 11 11 12 12 12 12 12 12 12 11 11 11 11 10 10 10 9 9 9 9 9 9 8 8 8 7 7 7 7 7 6 6 6 5 5 5 5
11 11 11 12 11 11 11 12 12 12 12 12 11 11 11 11 11 11 11 10 10 10 10 9 9 9 9 9 8 8 8 8 7 7 6 6 6 6 5 5 5 4 4
10 11 11 11 11 12 12 12 12 12 12 12 11 11 11 11 11 11 11 11 10 10 10 9 9 9 9 9 8 8 8 7 7 7 6 6 6 5 5 5 4 4 4
9 10 11 11 11 12 12 11 11 11 11 11 12 11 11 11 11 11 11 10 10 10 10 9 9 9 9 9 8 8 8 7 7 6 6 5 5 5 5 4 4 4 3
9 9 10 11 11 11 11 11 11 11 11 11 11 11 11 11 11 11 11 10 10 10 10 9 9 9 9 8 8 8 8 7 7 6 6 5 5 5 4 4 3 3 3
8 9 10 10 11 11 11 11 11 11 11 11 11 11 11 11 11 11 10 10 10 10 10 9 9 9 9 8 8 8 7 7 6 6 5 5 5 4 4 3 2 2 1
8 8 9 10 10 10 10 11 11 11 11 11 11 11 11 11 11 11 10 10 10 10 9 9 9 9 8 8 8 7 7 6 6 5 5 5 4 4 3 2 2 1 1
7 8 8 9 10 10 10 10 10 10 10 10 10 11 11 11 11 11 10 10 10 9 9 9 9 8 8 8 8 7 6 6 5 5 5 4 4 3 2 2 1 1 1
7 7 8 9 9 9 10 10 10 10 10 10 10 10 10 10 10 10 10 10 9 9 9 9 8 8 8 8 7 6 6 6 5 5 4 4 3 3 2 2 1 1 0
7 7 8 8 8 9 9 10 10 10 10 10 10 10 10 10 10 10 10 9 9 9 9 8 8 8 8 7 7 6 6 5 5 4 4 3 3 2 2 1 1 -0 -1
7 7 7 8 8 8 9 9 9 9 9 10 10 10 10 10 10 10 10 9 9 9 8 8 8 7 7 7 6 6 5 5 4 4 3 3 2 2 1 1 0 -1 -1
6 7 7 7 8 8 8 8 8 9 9 9 9 9 9 9 9 9 9 9 9 9 8 8 8 7 7 6 6 5 5 4 4 3 3 2 2 1 1 0 -0 -1 -2
6 6 7 7 7 7 8 8 8 8 8 8 9 9 9 9 9 9 9 8 8 8 8 7 7 7 6 6 5 5 4 4 3 3 2 2 1 1 0 -0 -1 -1 -2
5 6 6 6 6 7 7 7 8 8 8 8 8 9 9 8 8 8 8 8 8 8 7 7 6 6 5 5 5 4 4 3 3 2 2 1 1 0 -0 -1 -1 -2 -2
5 6 6 6 6 7 7 7 8 8 9 9 9 9 9 8 9 9 8 8 8 7 7 6 6 5 5 5 4 4 3 3 2 2 1 1 0 0 -1 -1 -2 -2 -3
5 5 5 6 6 6 6 7 7 8 8 8 9 9 9 9 9 8 8 8 8 7 7 6 6 5 5 5 4 3 3 2 2 2 1 0 -0 -0 -1 -2 -2 -3 -3
4 5 5 5 6 6 6 7 7 7 8 8 8 8 8 8 8 8 8 7 7 7 6 6 6 5 5 4 4 3 3 2 2 1 1 -0 -1 -1 -2 -2 -3 -3 -3
4 5 5 5 6 6 6 7 7 7 7 7 7 7 7 7 7 7 7 7 6 6 6 6 5 5 5 4 3 3 3 2 1 1 0 -0 -1 -1 -2 -2 -3 -3 -4
4 4 5 5 5 6 6 6 7 7 7 7 7 7 7 7 7 7 6 6 6 6 6 5 5 5 4 4 3 3 2 2 1 0 -0 -1 -1 -2 -2 -3 -3 -4 -4
3 4 5 5 5 5 5 6 6 6 7 6 6 6 6 6 6 6 6 6 6 6 5 5 5 4 4 3 3 2 2 1 0 -0 -1 -1 -2 -2 -3 -3 -4 -4 -4
3 4 4 5 5 5 5 6 6 6 6 6 6 6 6 6 6 6 6 5 6 5 5 5 4 4 4 3 3 2 1 1 0 -0 -1 -1 -2 -2 -3 -4 -4 -4 -5
3 3 4 5 5 5 5 5 6 6 6 6 5 5 5 6 6 5 5 5 5 5 5 4 4 4 3 3 2 2 1 1 -0 -1 -1 -2 -2 -3 -3 -4 -4 -5 -5
2 3 4 4 4 4 5 5 5 5 5 5 5 5 5 5 5 5 5 5 4 4 4 4 4 3 3 2 2 1 1 0 -0 -1 -1 -2 -2 -3 -4 -4 -4 -5 -5
2 3 3 4 4 4 4 4 4 4 4 5 5 5 5 5 5 5 4 4 4 4 4 3 3 3 3 2 2 1 0 -0 -0 -1 -2 -2 -3 -3 -4 -4 -5 -5 -5
2 2 3 3 3 4 4 4 4 4 4 4 4 4 4 4 4 4 4 4 4 3 3 3 3 2 2 2 1 1 0 -0 -1 -1 -2 -2 -3 -3 -4 -4 -5 -5 -6
2 2 3 3 3 3 3 3 3 4 4 4 4 4 4 4 4 4 4 4 3 3 3 2 2 2 1 1 0 0 -0 -1 -1 -2 -2 -3 -3 -4 -4 -5 -5 -5 -6
Wind_Speed
14 15 15 17 17 17 17 19 18 17 18 18 18 20 20 19 19 17 17 16 16 15 13 13 13 11 8 7 7 6 6 6 7 5 3 2 3 3 3 4 5 5 5
11 14 15 16 17 17 18 18 18 18 18 18 18 18 19 19 19 19 18 17 17 16 15 14 14 11 11 8 7 8 7 7 6 7 4 3 4 3 4 4 4 5 6
9 12 14 15 17 18 17 18 18 18 17 18 18 18 18 18 18 18 18 17 17 16 15 15 14 13 13 10 9 8 7 6 6 5 4 2 2 2 3 4 4 4 5
8 10 13 15 17 17 16 16 17 17 18 18 18 18 17 17 17 17 17 16 16 15 14 14 14 14 13 12 9 9 7 6 6 5 4 3 2 2 2 3 4 3 4
8 9 11 13 14 15 16 16 15 16 16 17 17 16 16 15 15 17 16 15 15 14 13 13 12 13 13 10 8 9 8 6 5 5 4 3 3 1 2 2 4 4 5
8 9 9 10 12 14 15 15 15 15 15 16 17 17 17 14 16 18 17 15 14 14 13 12 12 12 12 12 11 10 10 8 7 6 5 5 4 3 2 2 2 3 3
8 8 8 9 11 12 13 14 15 16 15 15 16 17 17 17 19 20 19 15 14 14 13 12 9 10 12 11 10 9 8 6 6 6 6 5 4 3 2 2 3 4 4
8 8 8 9 10 10 12 14 15 14 15 15 15 16 15 16 20 22 21 16 13 13 13 13 12 12 12 11 10 8 6 5 5 4 3 2 1 1 2 2 2 3 4
8 8 8 8 9 10 12 13 12 13 13 14 14 15 15 16 20 22 21 14 11 11 11 12 12 12 14 15 11 9 7 5 5 5 4 4 4 3 2 1 1 2 2
8 8 8 8 9 9 11 11 10 11 12 12 12 13 15 15 19 23 21 12 12 10 9 10 13 13 16 17 12 11 9 7 6 6 4 4 3 4 3 1 0 1 2
8 8 7 8 8 8 9 9 9 9 11 11 12 11 13 14 19 23 22 13 12 11 10 9 9 16 17 16 12 9 10 9 7 6 4 3 2 1 1 1 1 1 2
7 7 7 7 6 6 8 9 9 10 11 11 11 11 10 11 14 18 22 16 14 12 10 9 10 17 16 15 11 11 13 10 6 5 4 3 2 1 1 1 1 2 2
7 7 6 6 7 8 9 10 10 10 10 10 10 10 9 9 11 17 20 18 16 11 9 13 15 18 16 12 13 15 11 7 6 5 4 3 2 1 1 1 2 2 2
7 7 6 6 7 7 7 8 9 10 10 10 10 10 10 10 10 11 12 13 14 12 11 14 17 16 12 11 11 9 6 5 5 5 4 3 3 2 1 1 1 2 2
7 6 6 7 7 7 7 8 9 10 10 12 11 11 12 12 12 16 14 12 12 12 13 10 9 9 8 7 6 6 5 5 5 4 4 4 3 2 1 1 1 1 2
7 6 6 6 6 6 6 4 4 7 9 10 10 11 9 11 18 19 18 19 20 22 15 11 10 9 9 8 8 6 5 5 5 5 4 4 3 2 1 0 1 1 2
8 7 6 6 7 7 7 7 6 5 8 10 12 13 13 18 20 20 21 22 22 19 11 10 10 9 9 8 8 7 6 5 5 5 4 4 3 2 2 1 0 1 2
8 7 7 7 7 7 7 7 7 9 8 6 8 15 18 19 20 21 23 19 13 10 9 10 9 9 9 8 8 7 6 6 5 5 4 4 3 3 2 1 0 1 2
7 6 7 7 7 7 7 7 7 9 9 9 8 10 16 18 20 21 19 11 11 10 9 8 9 9 8 8 8 7 7 6 6 5 5 4 3 3 2 1 1 1 2
6 8 7 7 7 7 7 8 8 9 10 10 10 10 11 12 11 11 9 8 9 9 9 9 9 9 9 9 8 8 7 7 7 5 5 4 3 3 2 2 1 1 1
6 6 8 8 8 8 8 8 8 9 10 9 9 10 14 11 11 10 9 8 8 9 9 9 9 9 9 9 8 9 9 7 6 5 5 4 4 3 2 1 1 1 1
5 6 6 7 8 8 8 8 9 9 10 10 9 10 14 9 9 9 8 8 7 7 8 9 9 8 9 9 9 9 8 8 7 6 5 5 4 3 2 1 1 0 1
5 6 5 6 8 10 9 8 9 10 10 10 10 10 9 8 9 9 8 8 8 8 8 8 9 8 8 8 9 8 8 8 7 8 7 6 5 4 3 2 1 0 1
6 6 7 8 8 8 9 9 9 10 10 10 10 9 9 9 9 9 8 8 8 8 8 8 9 11 12 10 9 8 8 9 9 9 8 7 5 4 3 2 1 0 1
6 7 7 7 8 9 10 10 10 10 10 10 9 9 9 9 9 9 8 9 10 9 10 10 9 11 13 13 11 11 13 14 12 10 8 7 6 4 3 2 1 1 0
6 6 7 7 8 9 10 10 10 11 10 10 9 9 10 10 10 9 9 10 10 10 10 9 11 13 14 13 14 16 16 15 14 12 9 7 5 4 4 2 2 1 1
Wind_Direction
217 211 210 206 205 206 203 202 201 198 195 196 197 197 196 196 195 197 199 197 200 200 199 202 205 203 200 201 203 208 214 223 242 253 245 235 241 259 269 277 283 287 286
225 215 212 210 205 204 205 203 201 200 197 197 196 197 197 195 195 197 198 196 199 200 199 200 203 200 202 200 199 205 210 215 229 247 249 238 252 267 280 280 286 290 292
232 222 213 212 207 205 206 204 200 199 198 196 195 196 196 196 195 197 196 196 198 200 199 200 200 198 201 200 199 203 206 208 219 233 247 241 254 276 286 285 289 295 299
233 229 217 214 210 206 205 203 200 197 196 196 196 195 195 194 194 194 194 194 196 198 199 199 199 200 202 199 198 202 199 200 206 220 235 238 250 276 282 291 296 302 302
237 232 225 217 213 207 204 201 199 196 196 195 194 194 192 192 193 191 191 191 191 193 195 197 199 199 198 194 191 193 191 195 197 210 224 228 235 257 272 286 292 310 302
241 239 232 222 212 207 204 199 195 194 192 194 193 192 192 192 184 183 185 188 189 189 191 193 193 191 190 188 184 183 185 193 199 204 216 227 237 241 260 284 303 314 299
244 240 231 222 211 207 202 197 194 193 191 191 193 191 192 189 177 177 179 184 187 189 188 187 185 186 184 188 182 172 178 186 197 203 212 225 229 225 231 266 281 294 295
245 239 228 220 211 204 199 198 195 191 191 189 191 191 190 186 174 175 174 184 185 187 186 185 183 182 183 178 174 173 179 187 195 202 211 213 198 192 216 256 282 295 303
245 240 228 217 210 203 199 198 195 191 190 188 188 188 188 183 173 172 171 183 181 181 181 182 181 180 171 165 166 165 165 165 144 141 131 112 107 110 118 104 30 325 304
248 243 231 219 209 204 199 196 193 190 186 182 184 187 186 183 174 172 172 178 176 174 174 177 178 174 166 165 172 170 172 173 156 146 138 124 111 109 115 114 184 303 310
252 245 232 221 209 203 198 192 187 185 179 177 179 182 184 180 173 173 174 179 173 170 172 174 175 166 163 166 170 174 170 159 154 151 148 140 125 112 88 52 16 296 283
246 240 227 217 205 195 191 184 180 179 176 174 174 176 178 172 171 175 176 176 165 167 170 169 164 159 160 161 164 155 148 144 145 147 148 151 149 129 79 31 6 339 315
239 230 218 211 199 192 187 181 178 178 176 175 174 175 172 167 167 169 172 167 160 160 158 154 150 150 151 155 152 149 148 150 150 151 158 156 137 122 96 46 22 10 340
231 222 211 206 198 192 187 184 182 181 179 177 176 175 170 166 165 166 165 160 152 146 140 138 137 138 140 142 146 149 151 153 154 153 148 134 124 122 107 40 348 341 330
228 216 206 204 195 192 191 192 188 189 185 180 180 176 172 175 172 164 160 161 159 153 142 138 142 145 149 147 143 142 145 146 144 141 141 136 133 127 97 53 358 330 323
221 212 203 195 190 186 179 173 168 173 165 172 174 170 169 159 152 155 153 150 147 148 143 148 154 158 160 159 155 150 150 151 149 146 146 145 148 148 136 95 357 327 317
218 212 203 194 188 181 177 172 164 140 136 146 154 153 152 149 149 151 149 147 149 150 149 155 159 162 159 157 158 157 157 151 148 148 149 149 148 150 150 150 325 329 325
221 211 206 197 188 182 179 176 172 165 158 150 144 143 146 148 148 148 146 142 151 157 156 158 160 159 157 158 158 154 147 145 147 150 150 151 155 158 159 165 238 317 318
219 210 203 194 186 180 174 172 169 161 155 150 144 143 143 144 145 149 150 154 160 161 158 156 155 155 154 154 152 150 149 151 151 153 154 155 159 158 161 175 235 290 317
219 208 202 189 180 174 171 169 165 158 153 154 156 153 148 144 150 154 157 155 157 156 155 154 153 152 152 152 150 149 147 149 153 157 157 158 160 161 164 179 218 270 302
211 198 190 183 177 173 168 167 163 158 156 155 157 159 158 157 157 158 160 158 157 156 155 153 151 152 152 151 151 151 151 154 157 158 158 159 160 160 165 178 201 276 317
205 196 189 180 171 167 162 162 157 154 151 150 151 150 149 149 151 153 154 151 148 147 149 149 150 153 156 156 155 154 156 157 160 160 159 158 159 161 162 164 165 320 334
198 188 183 172 163 158 158 156 152 153 153 154 153 152 152 151 150 148 147 145 143 143 142 143 145 146 145 144 149 154 159 164 165 162 160 159 160 161 159 155 155 202 323
187 184 178 167 162 162 158 154 153 152 153 153 153 153 152 149 145 143 143 142 141 140 140 141 143 145 143 141 141 142 146 148 149 154 156 156 157 157 153 150 160 187 297
181 178 172 167 162 159 155 153 152 152 153 152 151 149 147 145 143 142 142 141 138 137 137 136 138 141 143 141 141 142 145 146 146 148 149 149 149 149 148 147 149 143 45
176 171 165 162 160 156 155 155 155 153 153 150 150 149 147 146 145 144 144 142 139 138 137 136 137 139 139 139 142 145 147 148 147 147 145 143 147 147 147 145 142 132 104
Height
1383 1387 1392 1397 1402 1407 1412 1417 1423 1428 1433 1438 1443 1448 1453 1458 1463 1468 1472 1476 1480 1484 1487 1490 1493 1496 1498 1500 1501 1502 1503 1504 1504 1503 1502 1501 1500 1498 1496 1494 1492 1490 1487
1378 1382 1386 1391 1396 1401 1405 1411 1416 1421 1427 1432 1437 1442 1447 1452 1457 1461 1466 1470 1474 1478 1481 1485 1488 1490 1492 1494 1496 1497 1498 1499 1499 1499 1498 1497 1496 1494 1492 1490 1488 1486 1483
1373 1376 1381 1385 1390 1394 1399 1404 1409 1414 1420 1426 1431 1435 1440 1445 1450 1455 1460 1464 1468 1472 1476 1479 1482 1485 1487 1489 1491 1492 1493 1494 1494 1494 1494 1493 1491 1490 1488 1486 1484 1482 1479
1368 1371 1374 1379 1383 1388 1393 1398 1403 1408 1413 1418 1424 1429 1434 1439 1444 1449 1454 1458 1462 1466 1470 1473 1476 1479 1482 1484 1485 1487 1488 1489 1490 1490 1489 1488 1487 1485 1484 1482 1480 1478 1476
1363 1365 1368 1373 1378 1383 1387 1392 1397 1402 1407 1412 1418 1423 1428 1433 1437 1442 1447 1452 1456 1460 1464 1468 1471 1474 1477 1479 1481 1482 1484 1484 1485 1485 1484 1484 1482 1481 1480 1478 1476 1474 1471
1358 1360 1363 1367 1371 1376 1381 1386 1391 1396 1401 1407 1411 1416 1421 1426 1431 1437 1442 1446 1451 1455 1459 1462 1466 1469 1471 1474 1476 1477 1479 1480 1480 1480 1480 1479 1478 1478 1477 1475 1473 1470 1467
1353 1355 1358 1361 1365 1370 1375 1380 1384 1389 1394 1399 1405 1410 1415 1420 1425 1431 1436 1441 1445 1449 1453 1457 1460 1463 1466 1469 1471 1472 1474 1475 1476 1477 1476 1475 1475 1474 1473 1471 1469 1467 1465
1349 1351 1353 1356 1359 1364 1369 1374 1378 1383 1388 1393 1399 1404 1409 1414 1420 1425 1430 1436 1440 1444 1448 1452 1455 1458 1461 1463 1466 1467 1469 1470 1471 1472 1472 1472 1471 1471 1469 1468 1466 1464 1462
1344 1346 1348 1351 1354 1358 1362 1368 1373 1377 1382 1387 1393 1398 1404 1409 1415 1420 1425 1430 1435 1439 1443 1447 1450 1453 1456 1459 1461 1463 1465 1466 1467 1468 1468 1468 1468 1467 1466 1465 1463 1461 1458
1339 1341 1344 1346 1349 1353 1357 1363 1367 1372 1377 1382 1388 1393 1398 1404 1409 1415 1420 1424 1429 1434 1438 1442 1446 1449 1452 1454 1457 1459 1460 1462 1463 1463 1464 1464 1464 1463 1462 1461 1460 1458 1455
1336 1337 1339 1342 1345 1349 1353 1358 1363 1367 1372 1377 1383 1388 1394 1399 1404 1409 1415 1419 1424 1429 1433 1437 1441 1444 1448 1450 1453 1455 1457 1458 1459 1460 1460 1461 1460 1460 1459 1458 1457 1455 1453
1331 1333 1335 1338 1341 1345 1349 1353 1358 1363 1367 1372 1377 1383 1389 1394 1399 1404 1410 1415 1420 1424 1428 1433 1437 1440 1444 1447 1449 1451 1453 1455 1456 1457 1457 1457 1457 1457 1456 1455 1454 1452 1450
1326 1328 1330 1333 1337 1341 1345 1349 1353 1358 1363 1367 1372 1378 1383 1389 1395 1401 1406 1411 1416 1421 1425 1430 1433 1437 1440 1443 1445 1448 1450 1451 1452 1453 1454 1454 1454 1454 1453 1452 1451 1449 1447
1322 1324 1326 1329 1333 1337 1341 1345 1348 1353 1357 1362 1367 1373 1378 1384 1389 1395 1400 1406 1412 1417 1421 1426 1430 1434 1437 1440 1442 1444 1446 1448 1449 1450 1451 1452 1452 1451 1450 1449 1448 1446 1445
1317 1319 1322 1325 1328 1332 1336 1340 1344 1348 1352 1357 1362 1367 1372 1378 1384 1389 1394 1400 1406 1412 1417 1421 1425 1429 1432 1435 1438 1440 1443 1445 1446 1447 1448 1449 1448 1448 1448 1447 1446 1444 1443
1313 1315 1318 1321 1324 1328 1332 1337 1341 1346 1351 1356 1360 1365 1370 1376 1382 1387 1393 1398 1404 1409 1413 1417 1421 1425 1428 1431 1434 1437 1439 1441 1443 1445 1445 1446 1446 1445 1445 1444 1443 1442 1440
1308 1311 1314 1317 1320 1324 1328 1332 1337 1343 1348 1353 1358 1364 1369 1374 1379 1384 1390 1396 1401 1406 1410 1413 1418 1421 1425 1428 1431 1434 1436 1439 1440 1442 1443 1443 1443 1443 1443 1442 1441 1440 1438
1304 1307 1310 1313 1316 1320 1325 1329 1333 1338 1344 1350 1356 1362 1367 1372 1377 1382 1387 1392 1397 1402 1406 1410 1414 1418 1422 1425 1428 1431 1434 1436 1438 1439 1440 1441 1441 1441 1440 1440 1439 1438 1436
1300 1303 1306 1309 1313 1317 1321 1326 1330 1336 1341 1347 1353 1359 1364 1370 1375 1380 1385 1389 1393 1398 1403 1407 1411 1415 1419 1422 1425 1428 1431 1433 1435 1436 1437 1438 1438 1439 1438 1438 1437 1436 1435
1296 1299 1302 1305 1309 1313 1318 1322 1327 1332 1337 1343 1348 1354 1360 1366 1371 1376 1381 1386 1391 1395 1400 1404 1408 1413 1416 1420 1423 1425 1428 1430 1432 1434 1435 1436 1436 1436 1436 1436 1435 1434 1433
1291 1294 1298 1301 1305 1310 1314 1319 1324 1329 1334 1340 1346 1352 1357 1362 1368 1373 1378 1383 1388 1393 1397 1402 1406 1410 1413 1417 1420 1423 1425 1427 1429 1431 1432 1433 1434 1434 1434 1434 1433 1433 1432
1287 1290 1294 1297 1302 1306 1311 1317 1322 1327 1332 1338 1344 1350 1356 1361 1366 1371 1376 1381 1386 1391 1396 1400 1404 1407 1411 1414 1417 1420 1423 1425 1427 1429 1430 1431 1432 1432 1432 1432 1432 1431 1430
1284 1287 1290 1295 1299 1304 1309 1314 1320 1325 1331 1336 1342 1347 1353 1358 1363 1369 1374 1379 1384 1389 1393 1398 1402 1405 1409 1412 1415 1418 1421 1423 1425 1427 1428 1429 1429 1430 1430 1430 1430 1430 1429
1280 1284 1287 1292 1297 1302 1306 1312 1318 1323 1329 1334 1340 1345 1351 1356 1361 1367 1372 1377 1382 1387 1391 1396 1400 1403 1407 1410 1413 1416 1419 1421 1423 1425 1426 1427 1428 1428 1429 1429 1429 1428 1428
1277 1281 1285 1289 1294 1299 1304 1310 1316 1321 1327 1333 1338 1344 1349 1354 1360 1365 1370 1375 1380 1385 1390 1394 1398 1402 1405 1409 1412 1415 1417 1420 1421 1423 1424 1425 1426 1427 1427 1428 1427 1427 1427
1275 1279 1283 1288 1292 1297 1303 1308 1314 1320 1325 1331 1336 1342 1348 1353 1358 1363 1368 1373 1378 1383 1388 1392 1396 1400 1404 1407 1410 1413 1416 1418 1420 1421 1423 1424 1425 1425 1426 1426 1426 1426 1426